C5773 Weather Reports


Display with metric or nautical units.
time (UTC)temp
F
wind
direction
speed
MPH
gust
MPH
rain 1hr
in
rain 24hr
in
rain mn
in
humidity
%
barometer
mb
20260504184503 60 292 6.0 18.0 0.00 0.00 0.00 30 997.6
20260504183603 61 299 6.0 12.0 0.00 0.00 0.00 27 997.3
20260504182703 61 313 6.0 11.0 0.00 0.00 0.00 28 997.2
20260504181804 61 290 7.0 16.0 0.00 0.00 0.00 28 997.1
20260504180903 62 300 6.0 12.0 0.00 0.00 0.00 30 997.1
20260504180003 62 304 6.0 14.0 0.00 0.00 0.00 34 997.0
20260504175403 62 301 5.0 10.0 0.00 0.00 0.00 31 996.7
20260504174503 62 290 6.0 16.0 0.00 0.00 0.00 28 996.6
20260504173603 62 287 7.0 18.0 0.00 0.00 0.00 32 996.6
20260504172703 63 298 5.0 12.0 0.00 0.00 0.00 32 996.5
20260504171803 63 300 6.0 12.0 0.00 0.00 0.00 34 996.5
20260504170904 62 299 7.0 15.0 0.00 0.00 0.00 37 996.5
20260504150903 60 307 4.0 12.0 0.00 0.00 0.00 37 996.1
20260504141116 61 287 5.0 12.0 0.00 0.00 0.00 41 995.5
20260504081804 56 270 2.0 5.0 0.00 0.00 0.00 42 996.4
20260504080904 56 263 2.0 5.0 0.00 0.00 0.00 42 996.5
20260504050005 47 0 0.0 0.0 0.00 0.00 0.00 64 999.8
20260504045403 47 0 0.0 0.0 0.00 0.00 0.00 67 999.9
20260504044503 47 0 0.0 0.0 0.00 0.00 0.00 65 1000.0
20260504043603 46 0 0.0 0.0 0.00 0.00 0.00 67 1000.2
20260504042704 46 0 0.0 0.0 0.00 0.00 0.00 70 1000.3
20260504041803 46 0 0.0 0.0 0.00 0.00 0.00 70 1000.3
20260504040903 47 0 0.0 0.0 0.00 0.00 0.00 69 1000.5
20260504040004 47 0 0.0 0.0 0.00 0.00 0.00 65 1000.7
20260504035403 48 0 0.0 0.0 0.00 0.00 0.00 63 1000.8
20260504034503 48 0 0.0 0.0 0.00 0.00 0.00 62 1000.9
20260504033603 48 0 0.0 0.0 0.00 0.00 0.00 62 1001.1
20260504032703 49 0 0.0 0.0 0.00 0.00 0.00 60 1001.3
20260504031803 48 0 0.0 0.0 0.00 0.00 0.00 59 1001.3
20260504030903 49 0 0.0 0.0 0.00 0.00 0.00 64 1001.4
20260504030215 50 0 0.0 0.0 0.00 0.00 0.00 62 1001.5
20260504025403 50 0 0.0 0.0 0.00 0.00 0.00 57 1001.5
20260504024504 51 279 0.0 0.0 0.00 0.00 0.00 53 1001.5
20260504023603 52 279 0.0 1.0 0.00 0.00 0.00 53 1001.6
20260504022703 53 0 0.0 0.0 0.00 0.00 0.00 51 1001.6
20260504022016 54 279 0.0 0.0 0.00 0.00 0.00 49 1001.6
20260504020903 55 0 0.0 0.0 0.00 0.00 0.00 46 1001.6
20260504020004 57 0 0.0 0.0 0.00 0.00 0.00 38 1001.7
20260504015403 58 0 0.0 0.0 0.00 0.00 0.00 38 1001.7
20260504014503 59 279 0.0 0.0 0.00 0.00 0.00 33 1001.8
20260504013603 60 279 0.0 1.0 0.00 0.00 0.00 30 1001.8
20260504012703 61 0 0.0 0.0 0.00 0.00 0.00 30 1001.8
20260504012017 62 0 0.0 0.0 0.00 0.00 0.00 28 1001.8
20260504010903 64 0 0.0 0.0 0.00 0.00 0.00 26 1001.8
20260504010003 65 0 0.0 0.0 0.00 0.00 0.00 25 1001.9
20260504005403 66 286 0.0 0.0 0.00 0.00 0.00 24 1001.8
20260504004715 66 292 2.0 3.0 0.00 0.00 0.00 24 1001.8
20260504003603 67 287 2.0 4.0 0.00 0.00 0.00 22 1001.9
20260504002703 67 295 2.0 5.0 0.00 0.00 0.00 23 1001.9
20260504001803 67 294 2.0 6.0 0.00 0.00 0.00 24 1002.2
20260504001115 68 293 2.0 5.0 0.00 0.00 0.00 23 1002.1
20260504000003 68 285 3.0 5.0 0.00 0.00 0.00 21 1002.0
20260503235403 69 286 3.0 5.0 0.00 0.00 0.00 22 1002.0
20260503234503 69 277 3.0 7.0 0.00 0.00 0.00 22 1002.1
20260503233603 69 325 3.0 4.0 0.00 0.00 0.00 23 1002.2
20260503232703 69 325 3.0 6.0 0.00 0.00 0.00 21 1002.3
20260503232013 70 306 2.0 5.0 0.00 0.00 0.00 23 1002.3
20260503230903 70 324 3.0 5.0 0.00 0.00 0.00 20 1002.4
20260503230003 70 312 3.0 7.0 0.00 0.00 0.00 22 1002.4
20260503225403 70 334 3.0 7.0 0.00 0.00 0.00 21 1002.5
20260503224503 70 345 4.0 7.0 0.00 0.00 0.00 20 1002.5
20260503223603 70 356 3.0 13.0 0.00 0.00 0.00 20 1002.7
20260503222703 70 302 4.0 9.0 0.00 0.00 0.00 21 1002.8
20260503221804 70 303 3.0 7.0 0.00 0.00 0.00 22 1002.7
20260503220903 70 316 4.0 7.0 0.00 0.00 0.00 23 1002.7
20260503220004 70 325 5.0 11.0 0.00 0.00 0.00 22 1002.8
20260503215403 70 2 5.0 11.0 0.00 0.00 0.00 24 1002.6
20260503214503 70 321 4.0 9.0 0.00 0.00 0.00 23 1002.5
20260503213603 70 342 5.0 9.0 0.00 0.00 0.00 25 1002.7
20260503212703 71 327 3.0 10.0 0.00 0.00 0.00 25 1002.8
20260503212014 70 341 4.0 11.0 0.00 0.00 0.00 25 1002.7
20260503210903 70 324 5.0 9.0 0.00 0.00 0.00 24 1002.9
20260503210004 70 321 4.0 10.0 0.00 0.00 0.00 22 1003.0
20260503205403 70 331 4.0 13.0 0.00 0.00 0.00 23 1003.1
20260503204503 70 346 5.0 10.0 0.00 0.00 0.00 26 1003.2
20260503203603 70 351 5.0 12.0 0.00 0.00 0.00 22 1003.3
20260503202703 70 324 3.0 10.0 0.00 0.00 0.00 23 1003.4
20260503201803 70 298 4.0 7.0 0.00 0.00 0.00 23 1003.4
20260503200903 70 318 5.0 10.0 0.00 0.00 0.00 24 1003.5
20260503200003 69 357 5.0 9.0 0.00 0.00 0.00 25 1003.5
20260503195616 69 359 5.0 10.0 0.00 0.00 0.00 23 1003.6
20260503194504 68 357 7.0 12.0 0.00 0.00 0.00 24 1003.8
20260503193603 69 331 4.0 12.0 0.00 0.00 0.00 25 1003.8
20260503192703 69 332 5.0 9.0 0.00 0.00 0.00 27 1003.8
20260503191803 69 351 4.0 10.0 0.00 0.00 0.00 28 1003.7
20260503190903 69 6 4.0 12.0 0.00 0.00 0.00 30 1003.7
20260503190215 69 348 5.0 9.0 0.00 0.00 0.00 28 1003.9
20260503185616 68 354 6.0 16.0 0.00 0.00 0.00 27 1004.0